Tracking 31027 objects as of 19-Jul-2025
HD Live streaming from Space Station
objects crossing your sky now

STARLINK-32402

Track STARLINK-32402 now!
10-day predictions
STARLINK-32402 is classified as:


NORAD ID: 61708
Int'l Code: 2024-196B
Perigee: 481.6 km
Apogee: 483.2 km
Inclination: 53.2 °
Period: 94.1 minutes
Semi major axis: 6853 km
RCS: Unknown
Launch date: October 30, 2024
Source: United States (US)
Launch site: AIR FORCE EASTERN TEST RANGE (AFETR)
Your satellite tracking list
STARLINK-32625
Track 1 satellite(s)




NASA's NSSDC Master Catalog

Two Line Element Set (TLE):
1 61708U 24196B   25199.44988059  .00000170  00000-0  17874-4 0  9996
2 61708  53.1604 109.3445 0001147  86.6018 273.5114 15.30191472 41293
Source of the keplerian elements: AFSPC